Regional Weather Roundup
Issued by NWS Charleston, WV

Home | Current Version | Previous Version | Graphics & Text | Print | Product List | Glossary On
Versions: 1 2 3 4 5 6 7 8 9 10 11 12 13 14 15 16 17 18 19 20 21 22 23 24 25 26 27 28 29 30 31 32 33 34 35 36 37 38 39 40
000
ASUS41 KRLX 221310
RWRRLX
West Virginia Regional Weather Roundup
National Weather Service Charleston WV
900 AM EDT WED MAR 22 2017

Note: "fair" indicates few or no clouds below 12,000 feet with no
significant weather and/or obstructions to visibility.

WVZ003-221400-
Northern Panhandle of West Virginia

CITY           SKY/WX    TMP DP  RH WIND       PRES   REMARKS
WHEELING       CLOUDY    27  14  58 N18G26    30.34R
$$

WVZ009-221400-
Northwest West Virginia

CITY           SKY/WX    TMP DP  RH WIND       PRES   REMARKS
PARKERSBURG    MOSUNNY   31  14  49 N13G20    30.40R
$$

WVZ006-221400-
Western West Virginia

CITY           SKY/WX    TMP DP  RH WIND       PRES   REMARKS
HUNTINGTON     MOSUNNY   34  20  56 NE13      30.36R
$$

WVZ015-221400-
West Central West Virginia

CITY           SKY/WX    TMP DP  RH WIND       PRES   REMARKS
CHARLESTON     PTSUNNY   33  22  63 NW14G20   30.33R
$$

WVZ022-031-221400-
North Central West Virginia

CITY           SKY/WX    TMP DP  RH WIND       PRES   REMARKS
CLARKSBURG     SUNNY     30  15  53 N14       30.33R
MORGANTOWN     CLOUDY    29  12  49 VRB6      30.34R
$$

WVZ025-035-042-045-221400-
Southern West Virginia

CITY           SKY/WX    TMP DP  RH WIND       PRES   REMARKS
BECKLEY        CLOUDY    31  24  75 NW15      30.21R
LOGAN          CLOUDY    34  27  75 N8G15     30.28R
BLUEFIELD      MOSUNNY   33  23  66 N8G18     30.18R
LEWISBURG      MOSUNNY   33  22  65 N15G22    30.18R
$$

WVZ047-221400-
Northern Mountains of West Virginia

CITY           SKY/WX    TMP DP  RH WIND       PRES   REMARKS
ELKINS         CLOUDY    30  15  53 N15G22    30.26R
$$

WVZ052-221400-
Eastern Panhandle of West Virginia

CITY           SKY/WX    TMP DP  RH WIND       PRES   REMARKS
MARTINSBURG    SUNNY     35  13  40 NW17G29   30.23R
PETERSBURG     SUNNY     35  16  46 NW10G24   30.27R
$$




USA.gov is the U.S. government's official web portal to all federal, state and local government web resources and services.